Regional Weather Roundup
Issued by NWS

Home | Current Version | Previous Version | Graphics & Text | Print | Product List | Glossary On
Versions: 1 2 3 4 5 6 7 8 9 10 11 12 13 14 15 16 17 18 19 20 21 22 23 24 25 26 27 28 29 30 31 32 33 34 35 36 37 38 39 40 41 42 43 44 45 46 47 48 49 50
000
ASUS43 KLOT 260603
RWRIL

ILLINOIS REGIONAL WEATHER ROUNDUP
NATIONAL WEATHER SERVICE CHICAGO/ROMEOVILLE IL
100 AM CDT THU APR 26 2018

NOTE: "FAIR" INDICATES FEW OR NO CLOUDS BELOW 12,000 FEET WITH NO
SIGNIFICANT WEATHER AND/OR OBSTRUCTIONS TO VISIBILITY.

* THESE STATIONS ARE NOT UNDER NWS QUALITY CONTROL. THEY ALSO MAY NOT
  REPORT WEATHER SUCH AS PRECIPITATION OR FOG.

ILZ001-002-007-009-015-016-024-260700-
NORTHWEST ILLINOIS

CITY           SKY/WX    TMP DP  RH WIND       PRES   REMARKS
MOLINE         FAIR      41  33  73 E8        29.96F
6HR MIN TEMP:  39; 6HR MAX TEMP:  64;

STERLING*      FAIR      37  31  78 E7        29.99F WCI  32
SAVANNA*       FAIR      41  33  72 S7        29.99S
$$

ILZ003-004-008-010-011-017-018-260700-
NORTH CENTRAL ILLINOIS

CITY           SKY/WX    TMP DP  RH WIND       PRES   REMARKS
ROCKFORD       FAIR      37  29  72 S6        30.00F WCI  32
6HR MIN TEMP:  37; 6HR MAX TEMP:  58;

FREEPORT*      FAIR      38  31  76 SE6       30.00F WCI  33
ROCHELLE*      FAIR      33  28  81 SE5       30.00F WCI  29
DE KALB*       FAIR      34  28  79 S5        30.00F WCI  30
$$

ILZ005-006-012>014-019>023-260700-
NORTHEAST ILLINOIS

CITY           SKY/WX    TMP DP  RH WIND       PRES   REMARKS
CHICAGO-OHARE  FAIR      40  29  64 CALM      29.98F
6HR MIN TEMP:  38; 6HR MAX TEMP:  45;

CHICAGO-MIDWAY FAIR      39  30  70 W3        29.99F
6HR MIN TEMP:  39; 6HR MAX TEMP:  46;

AURORA         FAIR      32  26  78 CALM      29.99F
6HR MIN TEMP:  31; 6HR MAX TEMP:  51;

LANSING*       FAIR      35  33  91 CALM      29.99F
JOLIET*        FAIR      36  32  84 CALM      30.00S
WAUKEGAN       FAIR      30  28  92 CALM      29.98F
6HR MIN TEMP:  29; 6HR MAX TEMP:  41;

DUPAGE AIRPORT FAIR      35  30  82 CALM      29.99S
6HR MIN TEMP:  34; 6HR MAX TEMP:  47;

KANKAKEE*      FAIR      35  30  80 CALM      30.00F
WHEELING       FAIR      38  31  76 CALM      30.00F
6HR MIN TEMP:  36; 6HR MAX TEMP:  43;

MORRIS*        FAIR      36  29  78 CALM      30.00S
ROMEOVILLE*    FAIR      37  30  78 CALM      30.00S
NORTHERLY ISL    N/A     40  29  65 N5          N/A
$$

LMZ740>746-260700-
SOUTHERN LAKE MICHIGAN

STATION/POSITION SKY/WX   TEMP    WIND        PRES    VSBY  WAVE
                          AIR SEA DIR/SP/G                  HT/PER
                          (F)     (DEG/KT/KT) (MB)    (MI)  (FT/S)
HARRISON CRIB              42     330/  6/  7   N/A
BURNHAM HARBOR             40     350/  3/  5   N/A
CALUMET HARBOR             39     310/  3/  3 1015.2F
BURNS HARBOR               40     330/  3/  5 1015.9F
MICHIGAN CITY              38     280/  7/  7   N/A
ST. JOSEPH                 41 43  140/  6/  8 1016.0F         3/ 5
$$

ILZ025>027-034>036-040-047-049-050-058-095>099-260700-
WEST-CENTRAL ILLINOIS

CITY           SKY/WX    TMP DP  RH WIND       PRES   REMARKS
QUINCY         CLEAR     47  38  71 W5        29.97S
GALESBURG*     FAIR      45  34  65 E5        29.98F
MACOMB*        CLEAR     39  33  77 CALM      29.99S
JACKSONVILLE*  PTCLDY    46  38  71 CALM      29.96S
PITTSFIELD*    CLOUDY    48  41  76 W5        29.97F
$$

ILZ028>032-037-038-041>044-048-051>054-059>061-260700-
CENTRAL ILLINOIS

CITY           SKY/WX    TMP DP  RH WIND       PRES   REMARKS
PONTIAC        FAIR      35  32  86 SE3       30.01S
BLOOMINGTON    FAIR      38  33  82 E10       30.00F WCI  31
DECATUR        FAIR      42  35  76 E8        29.98S
PEORIA         FAIR      45  33  63 E7        30.00R
6HR MIN TEMP:  45; 6HR MAX TEMP:  62;

LACON*         FAIR      39  31  72 CALM      30.00F
LINCOLN*       FAIR      43  36  75 NE5       29.99S
SPRINGFIELD    FAIR      48  37  65 E5        29.98R
6HR MIN TEMP:  48; 6HR MAX TEMP:  63;

TAYLORVILLE    FAIR      49  36  60 E6        29.97S
6HR MIN TEMP:  49; 6HR MAX TEMP:  62;

$$

ILZ033-039-045-046-055>057-062-063-260700-
EAST-CENTRAL ILLINOIS

CITY           SKY/WX    TMP DP  RH WIND       PRES   REMARKS
CHAMPAIGN      FAIR      42  33  70 NE10      29.98F
DANVILLE*      FAIR      36  33  88 N7        29.96F WCI  30
RANTOUL*       FAIR      41  35  77 NE5       29.99F
MATTOON        FAIR      47  34  60 NE13      29.96F
PARIS*         FAIR      44  34  66 NE6       29.99S
$$

ILZ079-100>102-260700-
SOUTHWEST ILLINOIS

CITY           SKY/WX    TMP DP  RH WIND       PRES   REMARKS
BELLEVILLE     DRIZZLE   55  54  94 S3        29.93F
CAHOKIA*       LGT RAIN  55  52  89 SW5       29.94F
SPARTA*        RAIN      53  53 100 CALM      29.96S
$$

ILZ064>066-069>071-074>076-080>082-084>086-088>090-092>094-260700-
SOUTH-CENTRAL ILLINOIS

CITY           SKY/WX    TMP DP  RH WIND       PRES   REMARKS
CARBONDALE     LGT RAIN  54  53  97 MISG      29.93F
6HR MIN TEMP:  54; 6HR MAX TEMP:  63; 6HR PCP:  0.42;

CAIRO*         CLOUDY    56  54  91 NE5       29.91F
EFFINGHAM*     FAIR      51  39  63 CALM      29.97F
MT. VERNON     LGT RAIN  55  49  80 CALM      29.95S
CENTRALIA*     CLOUDY    57  45  63 E3        29.94F
SALEM*         CLOUDY    57  39  52 E3        29.95S
METROPOLIS*    CLOUDY    56  54  92 N3        29.91F
$$

ILZ067-068-072-073-078-083-087-091-260700-
SOUTHEAST ILLINOIS

CITY           SKY/WX    TMP DP  RH WIND       PRES   REMARKS
LAWRENCEVILLE  FAIR      53  34  48 MISG      29.95F
FLORA*         CLOUDY    55  39  54 NE6       29.95S
FAIRFIELD*     CLOUDY    56  40  56 NE5       29.92F
HARRISBURG*    HVY RAIN  56  55  99 N8        29.94S
ROBINSON*      FAIR      49  35  58 NE8       29.97F
CARMI*         CLOUDY    56  46  68 N7        29.93S
$$

ABBREVIATIONS USED IN REMARKS
   TC - TEMPERATURE IN CELSIUS
  WCI - WIND CHILL INDEX
   HX - HEAT INDEX
  VSB - VISIBILITY
$$





USA.gov is the U.S. government's official web portal to all federal, state and local government web resources and services.